Weather History for San Luis Obispo, CA

Change the Weather History Date:

Saturday, December 1, 2012

  Actual Average Record
Temperature  
Mean Temperature 60 °F -  
Max Temperature 63 °F 66 °F 82 °F (2013)
Min Temperature 57 °F 43 °F 32 °F (2004)
Degree Days  
Heating Degree Days 5    
Growing Degree Days 10 (Base 50)    
Moisture  
Dew Point 59 °F    
Average Humidity 94    
Maximum Humidity 100    
Minimum Humidity 88    
Precipitation  
Precipitation 0.15 in - - ()
Sea Level Pressure  
Sea Level Pressure 30.10 in    
Wind  
Wind Speed 3 mph (SSE)    
Max Wind Speed 8 mph    
Max Gust Speed -    
Visibility 7 miles    
Events Rain    
Averages and records for this station are not official NWS values.
T = Trace of Precipitation, MM = Missing Value Source: NWS Daily Summary

Daily Weather History Graph

Daily Weather History Graph

Search for Another Location

Airport:

Trip Planner

Search our weather history database for the weather conditions in past years. The results will help you decide how hot, cold, wet, or windy it might be!

Date:

Astronomy

Dec. 01, 2012 Rise Set
Actual Time 6:53 AM PST 4:50 PM PST
Civil Twilight 6:25 AM PST 5:18 PM PST
Nautical Twilight 5:54 AM PST 5:49 PM PST
Astronomical Twilight 5:23 AM PST 6:20 PM PST
Moon 7:43 PM PST 9:10 AM PST
Length of Visible Light 10h 52m
Length of Day
9h 56m
Waning Gibbous, 91% of the Moon is Illuminated
Dec 1
Waning Gibbous
Dec 6
Last Quarter
Dec 13
New
Dec 19
First Quarter
Dec 28
Full

Hourly Weather History & Observations

Time (PST) Temp. Dew Point Humidity Pressure Visibility Wind Dir Wind Speed Gust Speed Precip Events Conditions
12:13 AM 60.8 °F 60.8 °F 100% 30.12 in 2.0 mi Calm Calm - N/A   Overcast
12:21 AM 60.8 °F 60.8 °F 100% 30.11 in 3.0 mi East 3.5 mph - N/A   Overcast
12:31 AM 60.8 °F 60.8 °F 100% 30.10 in 2.5 mi ESE 4.6 mph - N/A   Overcast
1:12 AM 60.8 °F 60.8 °F 100% 30.10 in 3.0 mi SE 4.6 mph - 0.01 in   Overcast
1:23 AM 60.8 °F 60.8 °F 100% 30.11 in 6.0 mi SE 5.8 mph - 0.01 in   Overcast
1:56 AM 60.1 °F 59.0 °F 96% 30.11 in 9.0 mi Calm Calm - 0.01 in   Overcast
2:19 AM 60.8 °F 59.0 °F 94% 30.12 in 9.0 mi SSE 3.5 mph - N/A   Overcast
2:56 AM 60.1 °F 59.0 °F 96% 30.11 in 10.0 mi SE 4.6 mph - N/A   Overcast
4:40 AM 60.8 °F 59.0 °F 94% 30.10 in 10.0 mi Calm Calm - N/A   Overcast
4:56 AM 60.1 °F 59.0 °F 96% 30.11 in 10.0 mi Calm Calm - 0.00 in Rain Light Rain
5:26 AM 60.8 °F 59.0 °F 94% 30.12 in 10.0 mi Calm Calm - 0.00 in Rain Light Rain
5:53 AM 60.8 °F 59.0 °F 94% 30.11 in 10.0 mi ESE 4.6 mph - 0.00 in   Overcast
5:56 AM 60.1 °F 59.0 °F 96% 30.11 in 10.0 mi ESE 4.6 mph - 0.00 in   Overcast
6:56 AM 60.1 °F 59.0 °F 96% 30.11 in 10.0 mi South 4.6 mph - N/A   Mostly Cloudy
7:56 AM 61.0 °F 59.0 °F 93% 30.13 in 10.0 mi SE 6.9 mph - N/A   Overcast
8:56 AM 62.1 °F 59.0 °F 90% 30.13 in 10.0 mi South 3.5 mph - 0.00 in   Overcast
9:56 AM 63.0 °F 60.1 °F 90% 30.14 in 6.0 mi SSE 6.9 mph - N/A   Overcast
10:56 AM 63.0 °F 60.1 °F 90% 30.12 in 3.0 mi SSE 5.8 mph - 0.00 in Rain Light Rain
11:03 AM 62.6 °F 60.8 °F 94% 30.12 in 2.5 mi SSE 5.8 mph - 0.02 in Rain Light Rain
11:12 AM 62.6 °F 60.8 °F 94% 30.12 in 2.0 mi SSE 5.8 mph - 0.03 in Rain Light Rain
11:14 AM 62.6 °F 60.8 °F 94% 30.12 in 2.0 mi South 5.8 mph - 0.03 in Rain Light Rain
11:56 AM 62.1 °F 60.1 °F 93% 30.10 in 2.0 mi Calm Calm - 0.08 in Rain Light Rain
12:03 PM 62.6 °F 60.8 °F 94% 30.10 in 2.0 mi SW 3.5 mph - 0.02 in Rain Light Rain
12:56 PM 62.1 °F 60.1 °F 93% 30.09 in 2.0 mi SW 4.6 mph - 0.05 in Rain Light Rain
1:03 PM 62.6 °F 60.8 °F 94% 30.09 in 3.0 mi South 5.8 mph - 0.00 in Rain Light Rain
1:10 PM 62.6 °F 60.8 °F 94% 30.09 in 3.0 mi WSW 8.1 mph - 0.00 in Rain Light Rain
1:56 PM 63.0 °F 61.0 °F 93% 30.08 in 3.0 mi SW 4.6 mph - 0.01 in   Overcast
2:51 PM 62.6 °F 60.8 °F 94% 30.07 in 7.0 mi South 4.6 mph - N/A   Mostly Cloudy
2:56 PM 63.0 °F 60.1 °F 90% 30.07 in 10.0 mi Variable 4.6 mph - N/A   Mostly Cloudy
3:56 PM 62.1 °F 59.0 °F 90% 30.08 in 10.0 mi SSW 3.5 mph - N/A   Scattered Clouds
4:28 PM 60.8 °F 59.0 °F 94% 30.08 in 7.0 mi Calm Calm - N/A   Mostly Cloudy
4:56 PM 61.0 °F 57.9 °F 90% 30.07 in 7.0 mi SE 3.5 mph - N/A   Mostly Cloudy
5:56 PM 60.1 °F 57.9 °F 93% 30.07 in 10.0 mi Calm Calm - N/A   Partly Cloudy
6:56 PM 57.9 °F 57.0 °F 97% 30.07 in 9.0 mi SE 3.5 mph - N/A   Partly Cloudy
7:36 PM 59.0 °F 57.2 °F 94% 30.08 in 9.0 mi SE 4.6 mph - N/A   Overcast
7:56 PM 59.0 °F 57.9 °F 96% 30.09 in 10.0 mi SE 6.9 mph - N/A   Overcast
8:23 PM 60.8 °F 57.2 °F 88% 30.08 in 10.0 mi ESE 6.9 mph - N/A   Overcast
8:56 PM 60.1 °F 57.9 °F 93% 30.09 in 10.0 mi Calm Calm - N/A   Overcast
9:56 PM 60.1 °F 57.9 °F 93% 30.10 in 8.0 mi SSE 4.6 mph - 0.00 in   Overcast
10:09 PM 60.8 °F 57.2 °F 88% 30.09 in 9.0 mi ESE 5.8 mph - N/A   Overcast
10:20 PM 59.0 °F 57.2 °F 94% 30.10 in 9.0 mi ESE 3.5 mph - N/A   Overcast
10:56 PM 60.1 °F 57.9 °F 93% 30.09 in 10.0 mi Calm Calm - N/A   Overcast
11:37 PM 60.8 °F 57.2 °F 88% 30.08 in 10.0 mi South 4.6 mph - N/A   Overcast
11:56 PM 60.1 °F 57.0 °F 90% 30.07 in 10.0 mi SSE 5.8 mph - N/A   Overcast